TimeEDT,TemperatureF,Dew PointF,Humidity,Sea Level PressureIn,VisibilityMPH,Wind Direction,Wind SpeedMPH,Gust SpeedMPH,PrecipitationIn,Events,Conditions,WindDirDegrees,DateUTC
12:07 AM,33.8,32.0,93,29.71,2.0,WSW,5.8,-,0.00,Snow,Light Snow,250,2013-03-26 04:07:00
12:34 AM,33.8,32.0,93,29.71,2.0,WSW,3.5,-,0.00,Snow,Light Snow,240,2013-03-26 04:34:00
12:51 AM,33.8,32.0,93,29.72,3.0,Calm,Calm,-,0.01,,Overcast,0,2013-03-26 04:51:00
12:53 AM,34.0,32.0,92,29.73,4.0,Calm,Calm,-,0.01,,Overcast,0,2013-03-26 04:53:00
1:32 AM,35.6,32.0,87,29.73,7.0,NW,4.6,-,0.00,Snow,Light Snow,310,2013-03-26 05:32:00
1:53 AM,35.1,30.9,85,29.75,10.0,WNW,6.9,-,0.00,,Overcast,300,2013-03-26 05:53:00
2:04 AM,35.6,30.2,81,29.74,6.0,WNW,6.9,-,0.01,Snow,Light Snow,300,2013-03-26 06:04:00
2:22 AM,35.6,30.2,81,29.74,9.0,WNW,4.6,-,0.01,Snow,Light Snow,300,2013-03-26 06:22:00
2:53 AM,35.1,32.0,89,29.76,10.0,NW,4.6,-,0.02,,Overcast,310,2013-03-26 06:53:00
3:22 AM,35.6,32.0,87,29.75,10.0,Calm,Calm,-,N/A,,Overcast,0,2013-03-26 07:22:00
3:48 AM,33.8,30.2,87,29.75,10.0,Calm,Calm,-,N/A,,Overcast,0,2013-03-26 07:48:00
3:53 AM,34.0,30.9,89,29.77,10.0,Calm,Calm,-,N/A,,Overcast,0,2013-03-26 07:53:00
4:53 AM,35.1,30.9,85,29.77,10.0,WNW,4.6,-,N/A,,Mostly Cloudy,290,2013-03-26 08:53:00
5:53 AM,34.0,30.0,85,29.79,9.0,NNW,3.5,-,N/A,,Mostly Cloudy,330,2013-03-26 09:53:00
6:53 AM,34.0,28.9,82,29.81,10.0,Calm,Calm,-,N/A,,Clear,0,2013-03-26 10:53:00
7:53 AM,34.0,28.0,79,29.84,10.0,WNW,5.8,-,N/A,,Partly Cloudy,300,2013-03-26 11:53:00
8:53 AM,37.9,30.0,73,29.86,10.0,NNW,5.8,-,N/A,,Clear,340,2013-03-26 12:53:00
9:53 AM,39.9,30.0,68,29.87,10.0,NNW,9.2,-,N/A,,Partly Cloudy,340,2013-03-26 13:53:00
10:53 AM,39.9,26.1,58,29.89,10.0,NW,13.8,-,N/A,,Partly Cloudy,320,2013-03-26 14:53:00
11:53 AM,39.9,25.0,55,29.91,10.0,NW,16.1,-,N/A,,Mostly Cloudy,310,2013-03-26 15:53:00
12:53 PM,44.1,26.1,49,29.90,10.0,NNW,16.1,21.9,N/A,,Partly Cloudy,340,2013-03-26 16:53:00
2:53 PM,48.0,24.1,39,29.88,10.0,NW,9.2,20.7,N/A,,Partly Cloudy,320,2013-03-26 18:53:00
3:53 PM,46.9,26.1,44,29.88,10.0,NNW,18.4,27.6,N/A,,Overcast,330,2013-03-26 19:53:00
4:53 PM,46.0,26.1,46,29.89,10.0,NNW,11.5,20.7,N/A,,Mostly Cloudy,330,2013-03-26 20:53:00
5:53 PM,46.9,25.0,42,29.90,10.0,NW,9.2,-,N/A,,Overcast,310,2013-03-26 21:53:00
6:53 PM,46.0,24.1,42,29.92,10.0,WNW,11.5,20.7,N/A,,Overcast,300,2013-03-26 22:53:00
7:53 PM,44.1,24.1,45,29.96,10.0,WNW,8.1,-,N/A,,Overcast,300,2013-03-26 23:53:00
8:53 PM,42.1,25.0,51,29.98,10.0,WNW,11.5,17.3,N/A,,Mostly Cloudy,290,2013-03-27 00:53:00
9:53 PM,42.1,26.1,53,30.00,10.0,WNW,15.0,25.3,N/A,,Mostly Cloudy,300,2013-03-27 01:53:00
10:53 PM,41.0,27.0,57,30.01,10.0,WNW,15.0,-,N/A,,Overcast,290,2013-03-27 02:53:00
11:53 PM,41.0,27.0,57,30.02,10.0,Variable,5.8,-,N/A,,Overcast,0,2013-03-27 03:53:00